CAPE
0 0 0 0 0 0 0 0 0 0 0 0 0 0 0 0 0 0 0 0 0 0 0 0 0 0 0 0 0 0 0 0 0 0 0 0 0 0 0 0 0 0 65 31
0 0 0 0 0 0 0 0 0 0 0 0 0 0 0 0 0 0 0 0 1 0 0 0 0 0 0 0 0 0 0 0 0 0 0 0 0 0 0 0 0 10 166 71
0 0 0 0 0 0 0 0 0 0 0 0 0 0 0 0 0 0 0 1 0 1 2 1 1 1 1 0 0 0 0 0 1 0 0 0 0 0 0 23 184 234 252 75
0 0 0 0 0 0 0 0 0 0 0 0 0 0 0 0 0 0 0 2 2 2 1 1 3 3 5 1 0 0 0 0 0 1 0 0 0 0 0 53 3 1 8 6
0 0 0 0 0 0 0 0 0 0 0 0 0 0 0 0 0 0 0 0 0 1 2 4 6 5 4 1 1 1 1 1 0 3 1 1 0 0 2 1 3 2 2 0
0 0 0 0 0 0 0 0 0 0 0 0 0 0 0 0 0 0 0 0 0 0 1 0 3 2 2 3 3 1 2 1 1 1 2 2 1 1 0 1 2 11 7 2
0 0 0 0 0 0 0 0 0 0 0 0 0 0 0 0 0 0 0 0 1 0 1 1 4 4 4 6 5 6 2 2 2 1 2 3 2 2 2 3 3 3 3 2
0 0 0 0 0 0 0 0 0 0 0 0 0 0 0 0 0 0 0 0 0 0 1 1 3 3 2 4 5 5 3 3 3 2 2 2 2 3 3 4 3 8 7 9
0 0 0 0 0 0 0 0 0 0 0 0 0 0 0 0 0 0 0 0 0 0 0 1 3 3 3 4 5 5 3 3 3 4 4 3 2 2 2 0 2 10 6 3
0 0 0 0 0 0 0 0 0 0 0 0 0 0 0 0 0 0 0 0 0 0 0 0 1 3 3 2 4 3 4 3 3 3 4 5 4 2 2 0 8 2 3 5
0 0 0 0 0 0 0 0 0 0 0 0 0 0 0 0 0 0 0 0 0 0 0 0 0 0 0 1 2 2 1 0 2 2 2 1 2 2 0 0 0 1 0 0
0 0 0 0 0 0 0 0 0 0 0 0 0 0 0 0 0 0 0 0 0 1 0 0 0 0 0 0 0 0 0 0 1 3 2 3 2 0 0 0 0 0 3 0
0 0 0 0 0 0 0 0 0 0 0 0 0 0 0 0 0 0 0 0 0 0 0 0 0 0 0 0 0 0 0 0 0 0 1 1 3 3 1 0 0 0 0 0
0 0 0 0 0 0 0 0 0 0 0 0 0 0 0 0 0 0 0 0 0 0 0 0 0 0 0 0 0 0 0 0 0 0 0 0 2 5 2 1 0 0 0 0
0 0 0 0 0 0 0 0 0 0 0 0 0 0 0 0 0 0 0 0 0 0 0 0 0 0 0 0 0 0 0 0 0 0 0 0 3 5 4 4 1 0 0 0
0 0 0 0 0 0 0 0 0 0 0 0 0 0 0 0 0 0 0 0 0 0 0 0 0 0 0 0 0 0 0 0 0 0 0 0 1 2 1 1 0 0 0 0
0 0 0 0 0 0 0 0 0 0 0 0 0 0 0 0 0 0 0 0 0 0 0 0 0 0 0 0 2 0 0 0 0 0 1 1 0 0 0 0 0 0 0 0
0 0 0 0 0 0 0 0 0 0 0 0 0 0 0 0 0 0 0 0 0 0 0 0 0 0 0 0 0 0 0 0 0 0 0 0 0 0 0 0 0 0 0 0
0 0 0 0 0 0 0 0 0 0 0 0 0 0 0 0 0 0 0 0 0 0 0 0 0 0 0 0 0 0 0 0 0 0 0 0 0 0 0 0 0 0 0 0
0 0 0 0 0 0 0 0 0 0 0 0 0 0 0 0 0 0 0 0 0 0 0 0 0 0 0 0 0 0 0 0 0 0 0 0 0 0 0 0 0 0 0 0
0 0 0 0 0 0 0 0 0 0 0 0 0 0 0 0 0 0 0 0 0 0 0 0 0 0 0 0 0 0 0 0 0 0 0 0 0 0 0 0 0 0 0 0
0 0 0 0 0 0 0 0 0 0 0 0 0 0 0 0 0 0 0 0 0 0 0 0 0 0 0 0 0 0 0 0 0 0 0 0 0 0 0 0 0 0 0 0
0 0 0 0 0 0 0 0 0 0 0 0 0 0 0 0 0 0 0 0 0 0 0 0 0 0 0 0 0 0 0 0 0 0 0 0 0 0 0 0 0 0 0 0
0 0 0 0 0 0 0 0 0 0 0 0 0 0 0 0 0 0 0 0 0 0 0 0 0 0 0 0 0 0 0 0 0 0 0 0 0 0 0 0 0 0 0 0
0 0 0 0 0 0 0 0 0 0 0 0 0 0 0 0 0 0 0 0 0 0 0 0 0 0 0 0 0 0 0 0 0 0 0 0 0 0 0 0 0 0 0 0
0 0 0 0 0 0 0 0 0 0 0 0 0 0 0 0 0 0 0 0 0 0 0 0 0 0 0 0 0 0 0 0 0 0 0 0 0 0 0 0 0 0 0 0
CIN
-0 -0 -0 -0 -0 -0 -0 -0 -0 -0 -0 -0 -0 -0 -0 -0 -0 -0 -0 -0 -0 -0 -0 -0 -0 -0 -0 -0 -0 -0 -0 -0 -0 -0 -0 -0 -0 -0 -0 -0 -0 -5 -33 -66
-0 -0 -0 -0 -0 -0 -0 -0 -0 -0 -0 -0 -0 -0 -0 -0 -0 -0 -0 -0 -0 -0 -0 -0 -0 -0 -0 -0 -0 -0 -0 -0 -0 -0 -0 -0 -0 -0 -0 -0 -0 -29 -8 -27
-0 -0 -0 -0 -0 -0 -0 -0 -0 -0 -0 -0 -0 -0 -0 -0 -0 -0 -0 -0 -0 -0 -0 -0 -0 -0 -0 -0 -0 -0 -0 -0 -0 -0 -0 -0 -0 -0 -0 -22 -4 -1 -7 -24
-0 -0 -0 -0 -0 -0 -0 -0 -0 -0 -0 -0 -0 -0 -0 -0 -0 -0 -0 -0 -0 -0 -0 -0 -0 -0 -0 -0 -0 -0 -0 -0 -0 -0 -0 -0 -0 -0 -0 -42 -0 -0 -2 -12
-0 -0 -0 -0 -0 -0 -0 -0 -0 -0 -0 -0 -0 -0 -0 -0 -0 -0 -0 -0 -0 -0 -0 -0 -0 -0 -0 -0 -0 -0 -0 -0 -0 -0 -0 -0 -0 -0 -0 -0 -0 -0 -0 -0
-0 -0 -0 -0 -0 -0 -0 -0 -0 -0 -0 -0 -0 -0 -0 -0 -0 -0 -0 -0 -0 -0 -0 -0 -0 -0 -0 -0 -0 -0 -0 -0 -0 -0 -0 -0 -0 -0 -0 -0 -0 -0 -0 -0
-0 -0 -0 -0 -0 -0 -0 -0 -0 -0 -0 -0 -0 -0 -0 -0 -0 -0 -0 -0 -0 -0 -0 -0 -0 -0 -0 -0 -0 -0 -0 -0 -0 -0 -0 -0 -0 -0 -0 -0 -0 -0 -0 -0
-0 -0 -0 -0 -0 -0 -0 -0 -0 -0 -0 -0 -0 -0 -0 -0 -0 -0 -0 -0 -0 -0 -0 -0 -0 -0 -0 -0 -0 -0 -0 -0 -0 -0 -0 -0 -0 -0 -0 -0 -0 -0 -0 -0
-0 -0 -0 -0 -0 -0 -0 -0 -0 -0 -0 -0 -0 -0 -0 -0 -0 -0 -0 -0 -0 -0 -0 -0 -0 -0 -0 -0 -0 -0 -0 -0 -0 -0 -0 -0 -0 -0 -0 -0 -0 -0 -0 -0
-0 -0 -0 -0 -0 -0 -0 -0 -0 -0 -0 -0 -0 -0 -0 -0 -0 -0 -0 -0 -0 -0 -0 -0 -0 -0 -0 -0 -0 -0 -0 -0 -0 -0 -0 -0 -0 -0 -0 -0 -0 -0 -0 -0
-0 -0 -0 -0 -0 -0 -0 -0 -0 -0 -0 -0 -0 -0 -0 -0 -0 -0 -0 -0 -0 -0 -0 -0 -0 -0 -0 -0 -0 -0 -0 -0 -0 -0 -0 -0 -0 -0 -0 -0 -0 -0 -0 -0
-0 -0 -0 -0 -0 -0 -0 -0 -0 -0 -0 -0 -0 -0 -0 -0 -0 -0 -0 -0 -0 -0 -0 -0 -0 -0 -0 -0 -0 -0 -0 -0 -0 -0 -0 -0 -0 -0 -0 -0 -0 -0 -0 -0
-0 -0 -0 -0 -0 -0 -0 -0 -0 -0 -0 -0 -0 -0 -0 -0 -0 -0 -0 -0 -0 -0 -0 -0 -0 -0 -0 -0 -0 -0 -0 -0 -0 -0 -0 -0 -0 -0 -0 -0 -0 -0 -0 -0
-0 -0 -0 -0 -0 -0 -0 -0 -0 -0 -0 -0 -0 -0 -0 -0 -0 -0 -0 -0 -0 -0 -0 -0 -0 -0 -0 -0 -0 -0 -0 -0 -0 -0 -0 -0 -0 -0 -0 -0 -0 -0 -0 -0
-0 -0 -0 -0 -0 -0 -0 -0 -0 -0 -0 -0 -0 -0 -0 -0 -0 -0 -0 -0 -0 -0 -0 -0 -0 -0 -0 -0 -0 -0 -0 -0 -0 -0 -0 -0 -0 -0 -0 -0 -0 -0 -0 -0
-0 -0 -0 -0 -0 -0 -0 -0 -0 -0 -0 -0 -0 -0 -0 -0 -0 -0 -0 -0 -0 -0 -0 -0 -0 -0 -0 -0 -0 -0 -0 -0 -0 -0 -0 -0 -0 -0 -0 -0 -0 -0 -0 -0
-0 -0 -0 -0 -0 -0 -0 -0 -0 -0 -0 -0 -0 -0 -0 -0 -0 -0 -0 -0 -0 -0 -0 -0 -0 -0 -0 -0 -0 -0 -0 -0 -0 -0 -0 -0 -0 -0 -0 -0 -0 -0 -0 -0
-0 -0 -0 -0 -0 -0 -0 -0 -0 -0 -0 -0 -0 -0 -0 -0 -0 -0 -0 -0 -0 -0 -0 -0 -0 -0 -0 -0 -0 -0 -0 -0 -0 -0 -0 -0 -0 -0 -0 -0 -0 -0 -0 -0
-0 -0 -0 -0 -0 -0 -0 -0 -0 -0 -0 -0 -0 -0 -0 -0 -0 -0 -0 -0 -0 -0 -0 -0 -0 -0 -0 -0 -0 -0 -0 -0 -0 -0 -0 -0 -0 -0 -0 -0 -0 -0 -0 -0
-0 -0 -0 -0 -0 -0 -0 -0 -0 -0 -0 -0 -0 -0 -0 -0 -0 -0 -0 -0 -0 -0 -0 -0 -0 -0 -0 -0 -0 -0 -0 -0 -0 -0 -0 -0 -0 -0 -0 -0 -0 -0 -0 -0
-0 -0 -0 -0 -0 -0 -0 -0 -0 -0 -0 -0 -0 -0 -0 -0 -0 -0 -0 -0 -0 -0 -0 -0 -0 -0 -0 -0 -0 -0 -0 -0 -0 -0 -0 -0 -0 -0 -0 -0 -0 -0 -0 -0
-0 -0 -0 -0 -0 -0 -0 -0 -0 -0 -0 -0 -0 -0 -0 -0 -0 -0 -0 -0 -0 -0 -0 -0 -0 -0 -0 -0 -0 -0 -0 -0 -0 -0 -0 -0 -0 -0 -0 -0 -0 -0 -0 -0
-0 -0 -0 -0 -0 -0 -0 -0 -0 -0 -0 -0 -0 -0 -0 -0 -0 -0 -0 -0 -0 -0 -0 -0 -0 -0 -0 -0 -0 -0 -0 -0 -0 -0 -0 -0 -0 -0 -0 -0 -0 -0 -0 -0
-0 -0 -0 -0 -0 -0 -0 -0 -0 -0 -0 -0 -0 -0 -0 -0 -0 -0 -0 -0 -0 -0 -0 -0 -0 -0 -0 -0 -0 -0 -0 -0 -0 -0 -0 -0 -0 -0 -0 -0 -0 -0 -0 -0
-0 -0 -0 -0 -0 -0 -0 -0 -0 -0 -0 -0 -0 -0 -0 -0 -0 -0 -0 -0 -0 -0 -0 -0 -0 -0 -0 -0 -0 -0 -0 -0 -0 -0 -0 -0 -0 -0 -0 -0 -0 -0 -0 -0
-0 -0 -0 -0 -0 -0 -0 -0 -0 -0 -0 -0 -0 -0 -0 -0 -0 -0 -0 -0 -0 -0 -0 -0 -0 -0 -0 -0 -0 -0 -0 -0 -0 -0 -0 -0 -0 -0 -0 -0 -0 -0 -0 -0
Wind_Speed
4 4 3 6 3 5 6 10 11 11 10 10 5 3 6 5 11 13 14 15 15 17 17 15 17 17 16 13 8 7 8 7 4 2 2 3 3 4 4 4 7 9 10 12
5 1 3 6 5 5 8 11 6 8 3 7 3 4 5 7 8 13 14 16 17 19 21 20 19 18 17 16 9 7 8 7 5 2 3 3 3 4 4 4 6 9 9 11
2 2 6 5 7 11 8 4 5 8 8 1 3 5 1 5 5 15 15 15 17 18 18 20 20 17 17 17 16 10 12 12 9 9 5 3 3 3 3 4 5 7 9 9
4 3 4 6 5 7 6 5 11 12 2 2 3 5 2 8 9 17 17 17 17 18 17 18 18 18 16 16 14 14 12 13 12 12 9 9 5 6 2 3 5 6 2 11
2 4 4 4 9 5 10 17 11 5 2 3 3 0 3 6 13 20 19 19 17 18 18 18 17 18 15 15 13 12 11 13 14 12 10 8 9 4 4 5 6 8 9 13
5 5 2 0 11 1 13 5 1 2 2 3 4 3 4 3 7 15 16 16 19 19 18 17 17 16 15 14 14 12 12 13 14 13 13 12 9 6 6 7 6 5 8 8
5 1 3 5 6 3 9 6 4 5 5 6 4 2 5 3 3 7 15 16 17 17 17 17 18 17 16 16 16 12 14 15 14 14 14 13 11 11 10 10 6 5 8 10
4 8 6 5 5 4 5 4 2 4 4 7 4 4 5 7 5 4 10 10 15 16 16 16 17 15 15 15 15 14 15 14 14 13 13 12 12 9 9 11 6 9 10 9
3 7 1 4 1 2 5 5 1 2 3 4 3 2 3 4 9 9 10 14 14 16 16 16 15 13 13 13 14 14 14 14 14 14 12 13 13 14 10 11 9 10 13 13
3 4 2 3 4 3 3 4 1 1 4 5 5 4 5 11 17 14 13 14 15 15 16 15 13 13 12 12 12 13 13 12 13 14 14 13 14 15 11 11 14 15 16 16
4 4 3 4 2 4 4 3 2 2 1 2 5 5 4 4 9 11 10 11 12 13 14 13 12 12 11 11 12 12 12 13 13 14 15 16 15 15 13 13 16 14 19 17
4 4 3 8 5 4 3 4 2 3 3 2 1 8 3 4 6 8 11 12 11 11 12 12 12 11 11 11 11 12 12 13 13 13 16 16 16 15 13 15 14 16 19 17
4 0 5 9 3 2 2 4 3 3 1 3 0 8 4 2 7 9 10 11 10 11 12 10 10 10 10 11 11 11 12 13 13 13 16 17 17 15 14 15 14 19 20 17
4 2 7 8 9 2 6 2 1 3 3 2 6 12 8 8 10 11 10 10 9 10 10 10 10 10 10 10 10 11 12 12 13 15 17 18 16 15 15 12 16 20 18 20
3 2 3 6 2 3 5 5 1 4 5 4 4 4 11 6 7 10 10 12 11 10 12 11 10 10 11 11 11 11 11 12 13 17 18 17 14 13 13 12 19 19 19 17
1 2 2 5 4 2 4 5 4 4 3 6 1 6 3 1 3 6 6 7 7 8 8 9 9 9 9 10 9 9 10 12 13 16 14 14 12 11 12 13 18 18 18 17
1 3 3 5 3 0 6 7 4 3 3 5 0 6 1 4 3 3 3 4 5 6 7 7 7 7 9 9 10 12 12 13 15 14 12 12 12 12 14 13 14 17 17 16
4 3 1 3 5 5 8 2 4 5 6 6 3 4 4 4 4 4 3 1 3 4 4 5 4 7 8 10 11 12 12 12 11 11 12 12 11 10 11 12 14 15 12 13
3 3 2 2 1 8 1 5 7 7 7 10 8 3 4 4 1 5 5 4 4 3 3 3 3 3 6 9 8 10 10 9 12 12 10 6 7 10 10 13 11 9 11 12
4 3 4 2 5 5 9 5 5 3 5 11 7 7 8 8 4 5 5 4 2 3 3 3 4 5 8 7 8 10 9 8 8 6 7 9 8 7 8 8 8 9 10 11
3 2 4 3 4 9 7 5 6 6 9 9 12 7 8 5 4 4 7 2 1 1 2 2 6 7 5 6 7 9 7 8 5 6 6 6 6 6 5 7 6 7 8 8
8 8 5 3 1 7 7 6 8 7 3 6 9 11 10 4 0 4 6 5 4 3 2 3 6 6 5 5 6 6 5 2 4 5 5 5 4 4 4 6 6 6 6 7
3 8 6 9 9 3 15 6 4 4 7 7 8 7 13 11 7 9 7 8 7 6 5 3 5 5 3 3 4 6 1 1 3 3 2 1 3 4 4 5 5 5 4 5
5 4 3 4 3 7 13 3 3 6 4 6 6 11 14 13 13 9 10 9 8 8 8 6 7 6 5 3 4 3 4 3 4 5 4 2 4 4 3 4 4 4 4 3
4 5 4 7 7 2 8 13 10 5 5 9 9 8 14 15 15 14 13 12 10 9 7 6 8 8 7 6 6 5 6 6 6 4 3 3 2 3 3 3 3 2 1 4
8 10 8 9 6 4 5 9 13 12 10 12 13 11 10 15 16 14 12 12 11 11 8 8 8 7 8 7 7 6 6 6 6 5 4 3 3 1 2 2 2 2 5 5
Wind_Direction
354 44 341 297 250 227 259 289 284 293 306 311 307 328 346 358 15 360 1 358 351 345 334 339 345 346 343 339 318 317 326 336 2 333 309 297 265 274 264 238 234 252 248 199
10 342 273 277 274 290 298 300 283 296 303 331 31 294 308 9 18 7 3 353 351 344 344 346 347 348 348 349 322 324 338 344 342 319 290 261 280 282 265 264 235 245 233 186
158 259 299 321 326 338 317 215 288 285 327 177 143 274 274 346 340 5 3 353 353 352 339 341 346 345 345 352 350 3 7 0 358 349 328 312 280 275 284 286 281 235 200 171
232 273 302 332 313 16 316 196 316 291 90 250 152 283 137 348 345 1 355 352 347 345 342 344 344 345 345 351 349 358 6 5 2 352 346 325 281 272 282 2 2 37 16 156
247 310 338 10 323 4 250 312 290 234 154 60 196 100 237 0 343 345 348 346 344 343 344 338 343 342 343 353 351 355 5 15 7 6 353 327 286 265 59 53 14 49 40 43
267 289 132 259 318 216 325 335 221 83 74 16 234 132 288 349 332 327 338 338 339 340 343 342 346 345 351 356 354 1 8 20 11 15 4 7 8 61 68 56 26 31 48 44
329 284 31 48 323 341 17 351 352 358 1 230 262 123 247 172 356 323 326 327 336 342 345 347 351 353 353 357 359 0 15 22 18 19 13 18 28 56 62 63 45 60 58 49
46 335 26 354 126 242 358 92 51 295 316 296 317 252 283 173 135 328 328 317 340 342 347 346 350 350 350 355 5 12 20 23 25 25 24 26 32 51 56 62 70 73 72 72
64 284 63 66 351 146 332 39 252 256 214 294 267 238 135 237 353 353 341 346 346 345 347 345 344 350 352 1 12 21 27 30 32 33 34 37 41 49 46 54 65 72 77 76
227 339 138 123 359 5 93 332 114 220 341 300 304 291 257 336 333 340 344 348 344 343 347 343 347 357 359 4 13 26 33 36 35 45 41 41 44 49 45 60 67 71 72 75
153 112 302 67 350 208 350 359 355 278 220 245 308 287 168 258 298 310 326 345 344 341 342 342 349 356 358 10 23 27 32 39 41 47 52 50 43 50 48 61 62 75 75 71
186 154 283 227 249 243 121 219 196 117 309 281 258 278 154 232 291 331 338 348 354 351 343 346 352 359 6 13 23 34 35 42 42 51 59 56 52 51 52 60 73 66 75 70
214 239 12 357 28 283 169 233 189 188 343 247 203 276 164 220 360 347 346 353 350 355 353 351 360 5 11 17 24 39 44 49 50 55 61 60 57 58 59 63 75 76 75 76
119 143 148 193 221 159 316 243 266 147 121 242 235 293 311 347 348 339 351 352 348 354 354 2 11 15 19 27 32 40 50 54 60 61 63 63 56 57 60 70 76 75 76 74
128 207 175 260 230 157 264 259 232 193 202 180 248 266 297 330 334 336 341 356 357 1 360 6 10 14 21 26 33 42 51 59 65 66 61 57 59 59 65 67 72 75 73 76
38 257 92 305 344 162 291 252 227 191 253 266 271 285 254 317 12 351 341 335 342 353 1 6 18 26 33 37 26 39 49 57 64 68 66 60 63 71 67 66 72 75 74 71
102 114 55 278 303 61 342 234 199 254 219 174 51 227 313 320 307 250 290 329 351 359 11 15 29 35 43 43 48 48 49 48 52 60 64 69 69 68 64 63 69 70 71 70
135 112 135 282 0 17 245 202 163 205 233 211 304 241 187 215 251 255 256 235 17 17 7 8 23 75 63 57 56 58 53 55 63 66 70 62 67 72 76 71 67 66 70 69
128 139 100 103 192 288 125 215 168 167 269 183 195 204 194 197 160 293 205 190 197 235 260 299 315 358 57 63 67 73 66 63 58 55 66 83 85 77 76 68 70 78 82 75
128 116 122 154 114 190 235 248 166 141 306 173 165 173 184 177 119 238 187 191 206 208 222 205 190 127 72 29 41 66 61 65 67 63 58 50 55 71 80 81 76 75 75 81
200 218 175 188 239 284 236 173 169 84 240 156 162 164 163 208 194 167 132 107 204 230 96 55 47 60 66 73 74 75 59 50 35 55 60 56 57 69 77 86 82 88 88 88
173 155 196 146 202 301 163 77 169 211 350 151 156 160 166 154 127 116 120 137 151 149 91 68 95 80 60 63 87 77 76 43 53 55 57 51 41 84 79 89 85 75 78 82
281 190 186 186 213 233 198 171 217 176 151 194 156 155 152 141 176 157 158 157 169 172 154 127 124 120 94 80 101 120 216 93 94 83 97 83 75 90 81 82 87 87 80 76
244 172 219 35 281 216 207 210 231 181 205 146 142 146 154 153 157 160 164 177 178 176 174 163 158 159 159 163 149 155 162 154 136 142 150 141 123 107 82 96 99 100 94 90
197 130 194 264 266 349 240 217 189 190 164 133 128 153 161 152 168 167 173 180 184 184 181 174 179 175 172 165 163 176 171 166 154 141 135 126 108 102 101 82 122 103 118 133
187 187 175 220 219 199 175 202 168 167 184 171 150 143 157 163 166 169 180 182 180 184 177 185 188 176 178 174 176 185 185 178 158 150 162 158 135 113 100 93 48 60 125 108